map of WMH home
WMH - Airport
Location
City:  Mountain Home, Arkansas, United States
Name:Baxter County Airport
Old (Alt.):Ozark Regional Airport
ICAO:KBPK
IATA:WMH
FAA LID:BPK

Details
Type:Airport (Airfield)
Use:Public/Civil
Latitude:3622'08"N (36.368942)
Longitude:9228'14"W (-92.470527)
Datum:WGS 1984
Elevation:927 ft (283 m)
Variation:0.23E (WMM2015v2 magnetic declination)
-0.08 annual change
Runways:1
Longest:5001 × 75 ft (1524 × 23 m), paved

Time
Time Zone:UTC-6 (DST-5)
Local Time:

Weather
METAR:KBPK 041412Z AUTO 22006KT 10SM BKN019 16/14 A2974 RMK AO2 T01610139
TAF:KBPK 041140Z 0412/0512 19012KT P6SM SCT020
TEMPO 0412/0414 BKN020
FM041400 21010G20KT P6SM SCT035
FM041800 23010G18KT P6SM SCT040
FM050000 32007KT P6SM SCT100 BKN250
FM050800 02005KT P6SM BKN015

Related Locations
Nearby:
Farthest:YAUG: 10882 mi / 17513 km
Augusta [Augusta Airport], WA, AU

Find:

   beyond  
but within

Other Information
Maps:
NOTAMs:
Links:
Sources:

  
  • flag of United States
  • flag of Arkansas
  

Sectional Chart

Flight Planning
at skyvector.com

Satellite Image

Google Maps Satellite view

 

Copyright © 2004-2019 Karl L. Swartz. All rights reserved.
The Great Circle Mapper name and logo are trademarks of the Great Circle Mapper.
All other trademarks mentioned herein belong to their respective owners.
Please see credits for attibutions and further copyright information.

  Follow gcmap on Facebook Follow gcmap on Twitter GCmap on LinkedIn

hCard Microformat

Geo Microformat